When you browse on this site, cookies collect data to enhance your experience and personalize the content and advertising you see.
Visit our Privacy Policy to learn more. By continuing to use the site, you agree to this use of cookies and data.
  • In United Kingdom
  • List of Countries
  • For 7 days
  • Water Temperature
  • Weather Map
  • Weather Widgets
  • user-avatar
    Login

    Hourly Weather Bruges

    Today, 11 December, Wednesday

    Time Temperature Precipitation Wind Pressure Humidity
    00:00 +6°C° 0 mm 11 mps 756 mmHg 80%
    01:00 +6°C° 0.2 mm 9 mps 756 mmHg 83%
    02:00 +6°C° 0.2 mm 7 mps 756 mmHg 87%
    03:00 +7°C° 0.2 mm 5 mps 755 mmHg 91%
    04:00 +7°C° 0.1 mm 5 mps 755 mmHg 89%
    05:00 +6°C° 0.1 mm 4 mps 755 mmHg 87%
    06:00 +6°C° 0 mm 4 mps 756 mmHg 85%
    07:00 +6°C° 0 mm 4 mps 755 mmHg 85%
    08:00 +6°C° 0 mm 4 mps 755 mmHg 85%
    09:00 +5°C° 0 mm 4 mps 754 mmHg 85%
    10:00 +6°C° 0 mm 4 mps 754 mmHg 79%
    11:00 +7°C° 0 mm 4 mps 754 mmHg 74%
    12:00 +7°C° 0 mm 4 mps 753 mmHg 69%
    13:00 +7°C° 0 mm 5 mps 753 mmHg 71%
    14:00 +7°C° 0 mm 5 mps 752 mmHg 74%
    15:00 +6°C° 0 mm 5 mps 751 mmHg 76%
    16:00 +5°C° 0.1 mm 6 mps 751 mmHg 77%
    17:00 +5°C° 0.1 mm 6 mps 751 mmHg 79%
    18:00 +5°C° 0.1 mm 6 mps 751 mmHg 80%
    19:00 +4°C° 0.1 mm 6 mps 751 mmHg 82%
    20:00 +4°C° 0.1 mm 7 mps 751 mmHg 83%
    21:00 +3°C° 0.1 mm 7 mps 751 mmHg 85%
    22:00 +3°C° 0 mm 6 mps 751 mmHg 86%
    23:00 +3°C° 0 mm 6 mps 751 mmHg 86%

    Tomorrow, 12 December, Thursday

    Time Temperature Precipitation Wind Pressure Humidity
    00:00 +3°C° 0 mm 5 mps 751 mmHg 86%
    01:00 +2°C° 0.1 mm 5 mps 751 mmHg 87%
    02:00 +2°C° 0.1 mm 5 mps 750 mmHg 87%
    03:00 +2°C° 0.1 mm 5 mps 750 mmHg 88%
    04:00 +1°C° 0 mm 5 mps 751 mmHg 87%
    05:00 +1°C° 0 mm 5 mps 751 mmHg 87%
    06:00 +1°C° 0 mm 5 mps 751 mmHg 86%
    07:00 +1°C° 0 mm 5 mps 750 mmHg 85%
    08:00 +1°C° 0 mm 5 mps 750 mmHg 84%
    09:00 +1°C° 0 mm 6 mps 750 mmHg 83%
    10:00 +2°C° 0 mm 6 mps 749 mmHg 80%
    11:00 +3°C° 0 mm 7 mps 748 mmHg 77%
    12:00 +4°C° 0 mm 8 mps 748 mmHg 73%
    13:00 +2°C° 0 mm 8 mps 746 mmHg 73%
    14:00 +2°C° 0 mm 9 mps 745 mmHg 73%
    15:00 +2°C° 0 mm 9 mps 743 mmHg 72%
    16:00 +2°C° 0 mm 10 mps 741 mmHg 74%
    17:00 +2°C° 0 mm 11 mps 740 mmHg 76%
    18:00 +2°C° 0 mm 12 mps 738 mmHg 77%
    19:00 +3°C° 1.2 mm 13 mps 737 mmHg 80%
    20:00 +3°C° 1.2 mm 13 mps 735 mmHg 83%
    21:00 +4°C° 1.2 mm 14 mps 734 mmHg 86%
    22:00 +4°C° 0.3 mm 11 mps 733 mmHg 88%
    23:00 +5°C° 0.3 mm 9 mps 732 mmHg 90%

    Day after tomorrow, 13 December, Friday

    Time Temperature Precipitation Wind Pressure Humidity
    00:00 +5°C° 0.3 mm 6 mps 731 mmHg 92%
    01:00 +5°C° 0.9 mm 6 mps 730 mmHg 91%
    02:00 +6°C° 0.9 mm 5 mps 729 mmHg 91%
    03:00 +6°C° 0.9 mm 4 mps 728 mmHg 91%
    04:00 +5°C° 1.4 mm 6 mps 728 mmHg 87%
    05:00 +5°C° 1.4 mm 8 mps 728 mmHg 83%
    06:00 +5°C° 1.4 mm 10 mps 728 mmHg 78%
    07:00 +3°C° 0.2 mm 10 mps 729 mmHg 80%
    08:00 +3°C° 0.2 mm 10 mps 730 mmHg 82%
    09:00 +3°C° 0.2 mm 9 mps 731 mmHg 84%
    10:00 +3°C° 0.4 mm 10 mps 732 mmHg 83%
    11:00 +5°C° 0.4 mm 10 mps 733 mmHg 81%
    12:00 +4°C° 0.4 mm 11 mps 734 mmHg 80%
    13:00 +5°C° 0.2 mm 10 mps 735 mmHg 78%
    14:00 +5°C° 0.2 mm 10 mps 735 mmHg 76%
    15:00 +6°C° 0.2 mm 9 mps 736 mmHg 74%
    16:00 +6°C° 0.1 mm 9 mps 737 mmHg 75%
    17:00 +6°C° 0.1 mm 9 mps 738 mmHg 76%
    18:00 +6°C° 0.1 mm 9 mps 739 mmHg 77%
    19:00 +6°C° 0.1 mm 9 mps 740 mmHg 76%
    20:00 +6°C° 0.1 mm 9 mps 741 mmHg 74%
    21:00 +5°C° 0.1 mm 9 mps 741 mmHg 73%
    22:00 +5°C° 0 mm 8 mps 741 mmHg 75%
    23:00 +4°C° 0 mm 8 mps 741 mmHg 78%

    14 December, Saturday

    Time Temperature Precipitation Wind Pressure Humidity
    00:00 +4°C° 0 mm 7 mps 741 mmHg 80%
    01:00 +5°C° 0.4 mm 9 mps 740 mmHg 82%
    02:00 +4°C° 0.4 mm 11 mps 739 mmHg 83%
    03:00 +5°C° 0.4 mm 13 mps 738 mmHg 85%
    04:00 +5°C° 0.1 mm 13 mps 739 mmHg 78%
    05:00 +5°C° 0.1 mm 13 mps 739 mmHg 72%
    06:00 +5°C° 0.1 mm 14 mps 740 mmHg 65%
    07:00 +5°C° 0 mm 14 mps 740 mmHg 64%
    08:00 +4°C° 0 mm 14 mps 741 mmHg 63%
    09:00 +4°C° 0 mm 14 mps 742 mmHg 61%
    10:00 +4°C° 0 mm 14 mps 743 mmHg 59%
    11:00 +5°C° 0 mm 13 mps 744 mmHg 57%
    12:00 +5°C° 0 mm 12 mps 744 mmHg 54%
    13:00 +6°C° 0.1 mm 11 mps 744 mmHg 62%
    14:00 +5°C° 0.1 mm 9 mps 745 mmHg 69%
    15:00 +4°C° 0.1 mm 7 mps 745 mmHg 77%
    16:00 +4°C° 0.5 mm 7 mps 745 mmHg 79%
    17:00 +4°C° 0.5 mm 7 mps 745 mmHg 81%
    18:00 +4°C° 0.5 mm 7 mps 746 mmHg 83%
    19:00 +4°C° 0.1 mm 7 mps 747 mmHg 81%
    20:00 +4°C° 0.1 mm 6 mps 747 mmHg 79%
    21:00 +4°C° 0.1 mm 6 mps 748 mmHg 78%
    22:00 +3°C° 0 mm 6 mps 748 mmHg 80%
    23:00 +2°C° 0 mm 5 mps 748 mmHg 82%

    15 December, Sunday

    Time Temperature Precipitation Wind Pressure Humidity
    00:00 +2°C° 0 mm 5 mps 748 mmHg 84%
    01:00 +2°C° 0 mm 5 mps 747 mmHg 86%
    02:00 +2°C° 0 mm 6 mps 746 mmHg 88%
    03:00 +2°C° 0 mm 7 mps 745 mmHg 90%
    04:00 +2°C° 0.8 mm 8 mps 744 mmHg 86%
    05:00 +3°C° 0.8 mm 10 mps 743 mmHg 82%
    06:00 +3°C° 0.8 mm 11 mps 742 mmHg 77%
    07:00 +4°C° 0.1 mm 13 mps 743 mmHg 71%
    08:00 +4°C° 0.1 mm 15 mps 744 mmHg 65%
    09:00 +3°C° 0.1 mm 17 mps 744 mmHg 58%
    10:00 +4°C° 0 mm 16 mps 746 mmHg 58%
    11:00 +4°C° 0 mm 15 mps 748 mmHg 58%
    12:00 +4°C° 0 mm 14 mps 750 mmHg 58%
    13:00 +3°C° 0 mm 12 mps 751 mmHg 60%
    14:00 +3°C° 0 mm 9 mps 752 mmHg 63%
    15:00 +4°C° 0 mm 6 mps 753 mmHg 65%
    16:00 +4°C° 0 mm 7 mps 753 mmHg 68%
    17:00 +2°C° 0 mm 8 mps 754 mmHg 70%
    18:00 +2°C° 0 mm 8 mps 754 mmHg 72%
    19:00 +2°C° 0 mm 8 mps 754 mmHg 73%
    20:00 +2°C° 0 mm 8 mps 754 mmHg 75%
    21:00 +2°C° 0 mm 9 mps 754 mmHg 76%
    22:00 +2°C° 0 mm 8 mps 754 mmHg 78%
    23:00 +2°C° 0 mm 8 mps 754 mmHg 79%

    16 December, Monday

    Time Temperature Precipitation Wind Pressure Humidity
    00:00 +4°C° 0 mm 8 mps 753 mmHg 81%
    01:00 +2°C° 0 mm 8 mps 753 mmHg 82%
    02:00 +3°C° 0 mm 7 mps 753 mmHg 83%
    03:00 +3°C° 0 mm 7 mps 753 mmHg 84%
    04:00 +3°C° 0 mm 6 mps 753 mmHg 85%
    05:00 +3°C° 0 mm 6 mps 753 mmHg 85%
    06:00 +3°C° 0 mm 6 mps 753 mmHg 86%
    07:00 +3°C° 0 mm 6 mps 753 mmHg 85%
    08:00 +3°C° 0 mm 6 mps 753 mmHg 84%
    09:00 +4°C° 0 mm 6 mps 753 mmHg 83%
    10:00 +4°C° 0 mm 6 mps 753 mmHg 82%
    11:00 +5°C° 0 mm 6 mps 753 mmHg 80%
    12:00 +7°C° 0 mm 6 mps 752 mmHg 78%
    13:00 +5°C° 0.1 mm 6 mps 752 mmHg 81%
    14:00 +6°C° 0.1 mm 5 mps 751 mmHg 84%
    15:00 +6°C° 0.1 mm 5 mps 751 mmHg 88%
    16:00 +6°C° 0 mm 5 mps 751 mmHg 90%
    17:00 +5°C° 0 mm 4 mps 750 mmHg 92%
    18:00 +5°C° 0 mm 4 mps 750 mmHg 94%
    19:00 +5°C° 0 mm 4 mps 750 mmHg 94%
    20:00 +5°C° 0 mm 3 mps 750 mmHg 95%
    21:00 +6°C° 0 mm 2 mps 750 mmHg 96%
    22:00 +6°C° 0.2 mm 2 mps 749 mmHg 96%
    23:00 +7°C° 0.2 mm 1 mps 749 mmHg 96%
    Show more